Flag for China Weather past 2 weeks in Kunming, Yunnan, China

Now
64 °F

Passing clouds.


Feels Like: 64 °F
Forecast: 63 / 77 °F
Wind: 6 mph from Southwest

Location: Kunming Airport

Current Time: Jul 31, 2014 at 1:47:44 AM

Latest Report: Jul 31, 2014 at 1:00 AM


Visibility: 5 mi

Pressure: 30.09 "Hg

Humidity: 94%

Dew point: 63 °F

Location of KunmingLocation

Historic Weather in Kunming — Graph

°F

Kunming temperature yesterday

Maximum temperature yesterday: 77 °F (at 3:00 PM)
Minimum temperature yesterday: 63 °F (at 2:00 AM)
Average temperature yesterday: 68 °F

Past Weeks' High & Low Weather Summary

 TemperatureHumidityPressure
High79 °F (Jul 24, 3:00 PM)100% (Jul 16, 12:00 AM)30.24 "Hg (Jul 16, 12:00 AM)
Low59 °F (Jul 17, 6:00 AM)37% (Jul 24, 3:00 PM)29.92 "Hg (Jul 19, 6:00 PM)
Average66 °F87%30.07 "Hg
* Reported Midnight between Jul 15 and Jul 16 — Midnight between Jul 30 and Jul 31, Kunming, Weather by CustomWeather, © 2014

Note: Actual official high and low records may vary slightly from our data, if they occured in-between our weather recording intervals... More about our weather records

Advertising

Kunming weather history for previous 24 hours

 ConditionsComfort  
Time TempWeatherWind HumidityBarometerVisibility
12:00 AM
Jul 31
64 °FPassing clouds.6 mph100%30.12 "Hg5 mi
11:00 PM
Jul 30
66 °FPassing clouds.3 mph88%30.12 "Hg5 mi
10:00 PM68 °FPassing clouds.8 mph83%30.09 "HgN/A
9:00 PM70 °FPassing clouds.8 mph78%30.07 "HgN/A
8:00 PM70 °FPassing clouds.8 mph78%30.04 "HgN/A
7:00 PM73 °FPassing clouds.8 mph65%30.04 "HgN/A
6:00 PM75 °FScattered clouds.8 mph65%30.01 "HgN/A
5:00 PM77 °FScattered clouds.6 mph57%30.04 "HgN/A
4:00 PM77 °FScattered clouds.3 mph57%30.04 "HgN/A
3:00 PM77 °FScattered clouds.6 mph61%30.07 "HgN/A
2:00 PM75 °FScattered clouds.10 mph65%30.09 "HgN/A
1:00 PM73 °FScattered clouds.6 mph65%30.09 "HgN/A
12:00 PM72 °FBroken clouds.8 mph73%30.12 "HgN/A
11:00 AM68 °FBroken clouds.8 mph83%30.12 "HgN/A
10:00 AM68 °FScattered clouds.6 mph78%30.12 "HgN/A
9:00 AM66 °FFog.6 mph88%30.12 "Hg3 mi
8:00 AM63 °FFog.No wind100%30.09 "Hg2 mi
7:00 AM63 °FFog.1 mph100%30.09 "Hg2 mi
6:00 AM63 °FFog.3 mph100%30.07 "Hg3 mi
5:00 AM63 °FFog.1 mph100%30.09 "Hg3 mi
4:00 AM63 °FFog.1 mph100%30.09 "Hg3 mi
3:00 AM63 °FPartly cloudy.No wind100%30.09 "Hg4 mi
2:00 AM63 °FPassing clouds.1 mph100%30.09 "Hg4 mi
1:00 AM64 °FPartly cloudy.3 mph94%30.09 "Hg6 mi
Weather by CustomWeather, © 2014

See weather overviewHow to use our weather pages